{"data":{"norad_id":36828,"intl_designator":"2010-036A","name":"BEIDOU-2 IGSO-1 (C06)","alt_names":[],"object_type":"PAYLOAD","status":"ACTIVE","operator":null,"country":"PRC","launch_date":"2010-07-31","launch_site_code":"XICLF","launch_vehicle":null,"mission":null,"orbit_class":"UNKNOWN","rcs_meters":31.6228,"size_class":null,"mass_kg":null,"dimensions":null,"purposes":["comms","nav"],"wikipedia_slug":null,"has_3d_model":false,"image_url":null,"decayed_at":null,"tle_current":{"epoch":"2026-09-13T16:04:22.733184Z","epoch_age_seconds":604580,"freshness":"STALE","line1":"1 36828U 10036A   26256.66970756 -.00000130  00000+0  00000+0 0  9997","line2":"2 36828  54.3037 162.1610 0058541 217.4777 320.7749  1.00289463 58981","mean_motion":1.00289463,"eccentricity":0.0058541,"inclination_deg":54.3037,"raan_deg":162.161,"arg_perigee_deg":217.4777,"mean_anomaly_deg":320.7749,"bstar":0,"rev_number":5898,"period_min":1435.8437635667,"perigee_km":35534.832354063,"apogee_km":36028.447454011,"semimajor_km":42159.776904037,"source":"CELESTRAK","updated_at":"2026-09-20T09:00:46.670112Z"}}}